Regional Weather Roundup
Issued by NWS

Home | Current Version | Previous Version | Text Only | Print | Product List | Glossary Off
Versions: 1 2 3 4 5 6 7 8 9 10 11 12 13 14 15 16 17 18 19 20 21 22 23 24 25 26 27 28 29 30 31 32 33 34 35 36 37 38 39 40 41 42 43 44 45 46 47 48 49 50

860
ASUS43 KMPX 291401
RWRMN
WEATHER ROUNDUP FOR MINNESOTA
NATIONAL WEATHER SERVICE TWIN CITIES/CHANHASSEN MN
900 AM CDT FRI JUL 29 2016


NOTE: "FAIR" INDICATES FEW OR NO CLOUDS BELOW 12,000 FEET WITH NO
SIGNIFICANT WEATHER AND/OR OBSTRUCTIONS TO VISIBILITY. N/A MEANS
CURRENT SKY AND/OR WEATHER CONDITIONS ARE NOT AVAILABLE.

MNZ060>063-068>070-291500-
   Twin Cities Metro

CITY           SKY/WX    TMP DP  RH WIND       PRES   REMARKS
TWIN CITIES    PTSUNNY   66  55  67 E8        30.07S
ST PAUL        CLOUDY    68  57  68 NE7       30.08R
CRYSTAL        SUNNY     66  53  63 NE8       30.07R
LAKEVILLE      SUNNY     66  59  77 NE6       30.07S
EDEN PRAIRIE   SUNNY     68  56  65 NE6       30.07R
LAKEVILLE      SUNNY     66  59  77 NE6       30.07S
SOUTH ST PAUL  PTSUNNY   68  56  65 E6        30.07S
LAKE ELMO      FAIR      64  55  72 NE8       30.09R
$$
MNZ001>005-007-008-013>017-022>024-027-028-291500-
   Northwest Minnesota

CITY           SKY/WX    TMP DP  RH WIND       PRES   REMARKS
HALLOCK        SUNNY     66  61  82 NW3       30.09S
ROSEAU         SUNNY     64  61  88 CALM      30.10S
WARROAD        SUNNY     68  63  83 NE6       30.10S
THIEF RVR FALL SUNNY     68  59  73 N3        30.10F
CROOKSTON      SUNNY     63  59  88 CALM      30.10S
FOSSTON        SUNNY     64  59  82 CALM      30.10S
DETROIT LAKES  SUNNY     68  63  83 SE3       30.10S
MOORHEAD       SUNNY     64  61  88 CALM      30.09S
PARK RAPIDS    SUNNY     67  60  78 S3        30.10F
MAHNOMEN       FAIR      67  60  80 CALM      30.09S
$$
MNZ006-009>011-018-025>026-291500-
   North Central Minnesota

CITY           SKY/WX    TMP DP  RH WIND       PRES   REMARKS
BAUDETTE       SUNNY     65  57  75 CALM      30.09S
FLAG ISLAND    SUNNY     70  57  64 N3        30.09S
INTL FALLS     SUNNY     65  56  72 SE5       30.10S
WASKISH        SUNNY     66  61  82 CALM      30.09S
BIG FORK       SUNNY     68  57  68 S5        30.11S
LONGVILLE      SUNNY     64  55  72 SE5       30.11S
GRAND RAPIDS   MOSUNNY   66  52  60 SE7       30.13F
CRANE LAKE     SUNNY     63  54  72 S3        30.13S
ORR            SUNNY     64  52  63 CALM      30.10S
COOK           SUNNY     64  52  63 CALM      30.13S
WALKER         FAIR      67  58  73 S5        30.10S
$$
MNZ012-019>021-037-291500-
   Northeast Minnesota

CITY           SKY/WX    TMP DP  RH WIND       PRES   REMARKS
DULUTH         SUNNY     66  53  63 E9        30.12S
ELY            SUNNY     64  54  68 CALM      30.13S
HIBBING        SUNNY     63  51  65 CALM      30.12F
EVELETH        SUNNY     64  52  65 CALM      30.13F
DULUTH HARBOR  SUNNY     63  57  82 CALM      30.12F
TWO HARBORS    SUNNY     70  57  64 E5        30.11S
SILVER BAY     SUNNY     68  55  64 CALM      30.11S
GRAND MARAIS     N/A     65  54  67 CALM      30.11S
G MARAIS ARPRT SUNNY     66  48  52 N6        30.15F
$$
MNZ029>031-032-039>041-046>048-054>057-064-291500-
   West Central Minnesota

CITY           SKY/WX    TMP DP  RH WIND       PRES   REMARKS
FERGUS FALLS   SUNNY     70  64  83 SE5       30.10S
WHEATON        MOSUNNY   66  64  94 CALM      30.10F
MORRIS         SUNNY     70  61  73 E5        30.09F
ALEXANDRIA     MOSUNNY   67  55  65 E5        30.12F
ELBOW LAKE     FAIR      67  61  80 CALM      30.11R
GLENWOOD       SUNNY     66  57  72 E5        30.12S
APPLETON       SUNNY     66  57  72 SE5       30.09S
BENSON         SUNNY     66  55  68 E6        30.10S
ORTONVILLE     SUNNY     68  57  68 CALM      30.09S
MADISON        SUNNY     66  57  72 E5        30.10R
WILLMAR        FAIR      66  57  72 NE5       30.11S
$$
MNZ033>034-036-042>043-049>051-058-059-291500-
   Central Minnesota

CITY           SKY/WX    TMP DP  RH WIND       PRES   REMARKS
ST CLOUD       SUNNY     64  56  75 NE8       30.10S
SAUK CENTRE    FAIR      65  56  72 NE3       30.11S
PAYNESVILLE    SUNNY     64  57  77 NE3       30.11S
AITKIN         SUNNY     66  54  63 E5        30.10S
PINE RIVER     SUNNY     64  57  77 SE5       30.14S
BRAINERD       SUNNY     66  54  65 E6        30.11S
STAPLES        PTSUNNY   64  55  72 CALM      30.11S
LONG PRAIRIE   PTSUNNY   63  54  72 CALM      30.12F
LITTLE FALLS   SUNNY     64  54  68 E5        30.11R
LITCHFIELD     SUNNY     64  61  88 NE3       30.10S
BUFFALO        SUNNY     64  55  73 NE5       30.11R
MAPLE LAKE     SUNNY     64  58  80 N6        30.10S
HUTCHINSON     SUNNY     67  59  74 N5        30.09F
$$
MNZ037-044-045-052-053-291500-
   East Central Minnesota

CITY           SKY/WX    TMP DP  RH WIND       PRES   REMARKS
PRINCETON      SUNNY     64  55  72 N7        30.11S
MORA           SUNNY     61  54  77 E5        30.13S
CAMBRIDGE      SUNNY     64  54  68 NE6       30.09S
RUSH CITY      SUNNY     63  55  76 NE5       30.10S
MOOSE LAKE     SUNNY     63  54  72 E3        30.11S
HINCKLEY       FAIR      63  57  82 NE6       30.11S
CLOQUET        SUNNY     64  54  68 E6        30.12S
MCGREGOR       SUNNY     64  54  68 E5        30.12F
$$
MNZ071>073-080-081-089-090-097-098-291500-
   Southwest Minnesota

CITY           SKY/WX    TMP DP  RH WIND       PRES   REMARKS
MONTEVIDEO     SUNNY     70  59  68 E5        30.11S
GRANITE FALLS  SUNNY     67  58  74 N8        30.11R
CANBY          SUNNY     66  59  78 CALM      30.12R
MARSHALL       SUNNY     64  59  83 NE6       30.10R
REDWOOD FALLS  SUNNY     67  57  70 NE7       30.09R
OLIVIA         SUNNY     64  55  72 NE9       30.08S
PIPESTONE      SUNNY     64  57  77 NE5       30.10R
WINDOM         SUNNY     66  61  82 N3        30.09R
WORTHINGTON    MOSUNNY   64  60  87 N7        30.10S
JACKSON        CLOUDY    64  59  82 CALM      30.09R
TRACY          SUNNY     64  58  82 CALM      30.11R
SLAYTON        SUNNY     62  58  87 N3        30.12R FOG
$$
MNZ065>067-074>077-082>085-091>093-291500-
   South Central Minnesota

CITY           SKY/WX    TMP DP  RH WIND       PRES   REMARKS
MANKATO        CLOUDY    66  57  72 N7        30.07R
NEW ULM        SUNNY     64  59  82 NE7       30.08R
ST JAMES       CLOUDY    59  55  88 N5        30.08R
FAIRMONT       CLOUDY    64  57  77 MISG      30.06R
GLENCOE        SUNNY     65  60  85 N7        30.08S
FARIBAULT      CLOUDY    64  61  88 N6        30.07R
OWATONNA       PTSUNNY   66  61  82 N6        30.06S
WASECA         CLOUDY    63  59  88 N6        30.08R
ALBERT LEA     CLOUDY    64  61  88 N10       30.06R
$$
MNZ078>079-086>088-094>096-291500-
   Southeast Minnesota

CITY           SKY/WX    TMP DP  RH WIND       PRES   REMARKS
ROCHESTER      CLOUDY    65  61  87 NE10      30.06R
RED WING       CLOUDY    70  57  64 NE5       30.04S
STANTON        CLOUDY    66  59  77 NE5       30.06R
DODGE CENTER   MOSUNNY  N/A N/A N/A NE6       30.06R
WINONA         CLOUDY    66  59  77 E7        30.05R
AUSTIN         CLOUDY    64  61  88 N3        30.04S
PRESTON        CLOUDY    62  59  90 NE8       30.05R
$$
ABBREVIATIONS USED IN REMARKS
   TC - TEMPERATURES IN CELSIUS
  WCI - WIND CHILL INDEX
   HX - HEAT INDEX
  VSB - VISIBILITY
$$




USA.gov is the U.S. government's official web portal to all federal, state and local government web resources and services.